Regional Weather Roundup
Issued by NWS

Home | Current Version | Previous Version | Text Only | Print | Product List | Glossary Off
Versions: 1 2 3 4 5 6 7 8 9 10 11 12 13 14 15 16 17 18 19 20 21 22 23 24 25 26 27 28 29 30 31 32 33 34 35 36 37 38 39 40 41 42 43 44 45 46 47 48 49 50

000
ASUS45 KABQ 211410
RWRNM
WEATHER ROUNDUP FOR NEW MEXICO
NATIONAL WEATHER SERVICE ALBUQUERQUE NM
800 AM MDT TUE OCT 21 2014

NOTE: "FAIR" MEANS FEW OR NO CLOUDS BELOW 12,000 FEET AGL WITH NO
       SIGNIFICANT WEATHER OR OBSTRUCTIONS TO VISION.

      THIS PRODUCT IS RELEASED AS TWO VERSIONS.  ONE VERSION NEAR
      THE TOP OF THE HOUR CONTAINING PRELIMINARY DATA FROM ALBUQUERQUE
      AND OTHER STATIONS.  A FINAL VERSION WITH ADDITIONAL DATA IS
      ISSUED ABOUT 10 MINUTES AFTER THE HOUR.

NMZ501-503-504-510>518-211500-
NORTHWEST PLATEAU/NORTHCENTRAL MOUNTAINS

CITY           SKY/WX    TMP DP  RH WIND       PRES   REMARKS
FARMINGTON     CLOUDY    51  44  77 SE7       30.13S
LOS ALAMOS     CLOUDY    49  43  81 CALM      30.24R
SANTA FE       CLOUDY    48  45  89 N6        30.20R
TAOS           CLOUDY    39  34  81 CALM      30.25S
ANGEL FIRE     FOG       32  31  95 CALM      30.31S VSB<1/4

$$
NMZ402-403-502-505>509-211500-
WESTCENTRAL MOUNTAINS/SOUTHWEST MOUNTAINS

CITY           SKY/WX    TMP DP  RH WIND       PRES   REMARKS
GALLUP         PTCLDY    38  37  97 CALM      30.18R
GRANTS         CLEAR     36  36 100 CALM      30.21R
SILVER CITY    PTCLDY    52  48  87 CALM      30.15R

$$
NMZ407-409-411-412-211500-
SOUTHERN DESERTS

CITY           SKY/WX    TMP DP  RH WIND       PRES   REMARKS
LORDSBURG      FAIR      52  50  93 MISG      30.09R
DEMING         CLEAR     52  51  97 E3        30.10R
LAS CRUCES     CLEAR     53  52  97 CALM      30.12R
HOLLOMAN AFB   PTCLDY    53  53 100 CALM      30.10R
T OR C         CLOUDY    53  51  93 N5        30.12S

$$
NMZ519>523-211500-
CENTRAL VALLEYS/CENTRAL HIGHLANDS

CITY           SKY/WX    TMP DP  RH WIND       PRES   REMARKS
ALBUQUERQUE    MOCLDY    54  47  77 N5        30.16R
DOUBLE EAGLE   MOCLDY    52  46  82 CALM      30.17S
MORIARTY ARPT  CLOUDY    47  46  93 CALM      30.21S
CLINES CORNERS CLOUDY    48  44  86 SE7       30.21S
BELEN          CLOUDY    46  45  97 S3        30.16S
SOCORRO        CLOUDY    50  48  93 N5        30.15S

$$
NMZ524>526-539-540-211500-
SOUTHCENTRAL MOUNTAINS

CITY           SKY/WX    TMP DP  RH WIND       PRES   REMARKS
RUIDOSO        NOT AVBL

$$
NMZ527>531-211500-
NORTHEAST HIGHLANDS/NORTHEAST PLAINS

CITY           SKY/WX    TMP DP  RH WIND       PRES   REMARKS
LAS VEGAS      CLOUDY    47  44  90 S6        30.23R
RATON          PTCLDY    41  38  89 N5        30.19R
CLAYTON        CLEAR     52  43  71 SW8       30.15R

$$
NMZ532>537-211500-
EASTCENTRAL PLAINS

CITY           SKY/WX    TMP DP  RH WIND       PRES   REMARKS
TUCUMCARI      PTCLDY    50  45  83 CALM      30.14R
CANNON AFB     SUNNY     52  49  89 NE5       30.16R
CLOVIS AIRPORT NOT AVBL

$$
NMZ028-029-538-211500-
SOUTHEAST PLAINS

CITY           SKY/WX    TMP DP  RH WIND       PRES   REMARKS
ROSWELL        CLOUDY    58  55  90 N7        30.12R
CARLSBAD       CLOUDY    62  59  90 W3        30.10R FOG
HOBBS          PTSUNNY   59  57  94 CALM      30.14R


$$



USA.gov is the U.S. government's official web portal to all federal, state and local government web resources and services.